Location: Powder Track
(41.8531°N, 72.3584°W)
Time: 00:16:31
(UTC+00:00)

Vanguard 2 Rocket - Pass Details

Date: 10 August 2021
Orbit: 556 x 3324 km, 32.9° (Epoch: 22 September)

Event Time Altitude Azimuth Distance (km) Brightness Sun altitude
Rises 12:05:27 0° 259° (W) 3,443 9.3 23.3°
Reaches altitude 10° 12:08:43 10° 246° (WSW) 2,203 8.4 23.9°
Maximum altitude 12:12:31 23° 193° (SSW) 1,277 7.7 24.6°
Drops below altitude 10° 12:15:45 10° 138° (SE) 1,835 9.2 25.2°
Sets 12:18:12 0° 123° (ESE) 2,725 10.3 25.6°
